sat.trackr.live / text

‹ back to catalog

COSMOS 2613

NORAD 68763 · 2026-083J

PAYLOAD ACTIVE UNKNOWN

§ Identity

Operator
Country
CIS
Launch date
2026-04-16
Launch site
PLMSC
Launch vehicle
Mass (kg)
RCS (m²)

External: N2YO · Heavens-Above · Gunter

§ Orbital elements

Epoch: 2026-09-19T23:29:49.547616Z

Period
95.63 min
Inclination
97.7944°
Eccentricity
0.0008295
Mean motion
15.05842781 rev/d
Perigee alt
543.2 km
Apogee alt
554.7 km
Semi-major
6,927.1 km
B*
8.6632e-5
RAAN
41.9478°
Arg perigee
42.3998°
Mean anomaly
317.7868°
Rev number
2,347

§ Raw data

COSMOS 26131 68763U 26083J   26262.97904569  .00001193  00000+0  86632-4 0  99982 68763  97.7944  41.9478 0008295  42.3998 317.7868 15.05842781 23471

JSON: /api/v1/satellites/68763 · /tle

For live sub-satellite position, see the globe view (requires WebGL).

§ Visibility from observer

Set your observer location to see the next 7 days of passes ≥ 10°. The values pass through the URL so the page stays shareable.

No JS? Fill the form by hand. The geolocation button needs JavaScript.